Find KUIPER-00519

NORAD ID: 68890 Int'l Des: 2026-095AC Owner: kuiper Country: USA Constellation: kuiper operational
LEOCIRCULAR

实时位置

正在加载3D地球...

关于 KUIPER-00519

正在加载描述...

即将过境

Passes for default location (London). Set your location on the main map for personalized predictions.

高度历史

Loading altitude history...

两行轨道根数

1 68890U 26095AC 26121.83336806 .00061382 00000-0 16076-2 0 9994
2 68890 51.8822 106.4880 0002303 83.2086 85.6505 15.38117852 1327
Epoch: May 1, 2026 • Age: 5 hours

当前状态

高度 455.0 km
速度 7.64 km/s
星下点 -11.24°S, 62.66°E
类型 internet

Most Searched